sat.trackr.live / text

‹ back to catalog

STARLINK-3049

NORAD 49436 · 2021-104AE

PAYLOAD ACTIVE UNKNOWN

§ Identity

Operator
Country
US
Launch date
2021-11-13
Launch site
AFETR
Launch vehicle
Mass (kg)
RCS (m²)

Purposes: comms

External: N2YO · Heavens-Above · Gunter

§ Orbital elements

Epoch: 2026-05-25T03:26:59.137728Z

Period
95.43 min
Inclination
53.2140°
Eccentricity
0.0000593
Mean motion
15.08944431 rev/d
Perigee alt
539.0 km
Apogee alt
539.8 km
Semi-major
6,917.6 km
B*
-1.0164e-3
RAAN
225.9074°
Arg perigee
77.0213°
Mean anomaly
283.0845°
Rev number
25,045

§ Raw data

STARLINK-30491 49436U 21104AE  26145.14374002 -.00016474  00000+0 -10164-2 0  99902 49436  53.2140 225.9074 0000593  77.0213 283.0845 15.08944431250454

JSON: /api/v1/satellites/49436 · /tle

For live sub-satellite position, see the globe view (requires WebGL).

§ Visibility from observer

Set your observer location to see the next 7 days of passes ≥ 10°. The values pass through the URL so the page stays shareable.

No JS? Fill the form by hand. The geolocation button needs JavaScript.